Cloud_Cover
0 0 8 10 1 0 28 25 0 0 1 16 6 0 0 1 5 96 100 100 100 100 100 100 100 96 91 100 100 96 31 22 76 65 30 5 5 5 5 5 0 15 69
0 11 20 23 31 48 54 21 20 27 0 1 6 4 0 27 13 5 100 100 100 100 100 100 100 100 36 100 100 71 100 100 100 100 74 9 5 5 5 5 2 21 100
1 18 25 39 51 38 51 11 6 35 12 3 26 22 22 35 12 12 27 100 100 100 100 100 100 100 100 100 100 100 71 100 100 57 62 98 49 5 5 8 80 50 100
2 19 26 0 5 33 54 53 35 0 25 54 9 0 1 9 2 9 5 37 100 100 100 100 100 100 100 100 84 100 100 100 100 98 99 100 100 83 10 8 12 20 100
6 11 1 0 2 7 21 25 44 31 22 52 57 48 2 15 14 20 5 2 74 89 100 100 100 100 100 100 100 100 100 100 100 100 100 80 100 100 96 81 32 5 11
0 1 0 0 0 4 9 5 1 93 100 100 98 100 100 56 51 7 5 3 100 100 100 100 100 100 100 100 100 100 100 100 100 100 100 100 100 100 100 100 100 100 94
0 0 0 0 3 5 14 100 100 100 100 100 100 56 100 100 77 37 2 12 99 100 99 18 100 100 100 100 100 98 100 100 100 99 100 100 72 100 100 100 100 100 100
0 0 2 84 88 11 100 100 100 100 100 100 100 100 100 100 100 100 79 99 99 100 100 100 100 100 100 100 100 94 80 87 100 99 100 95 95 91 100 90 75 100 100
0 0 4 79 100 100 100 100 100 100 100 100 100 86 100 100 100 100 100 100 100 100 100 100 100 100 100 100 100 100 100 76 70 58 100 91 100 100 100 100 100 82 77
0 0 5 100 100 100 100 100 100 100 100 100 100 100 98 22 100 100 100 100 100 100 100 100 100 75 86 100 100 99 100 98 6 8 99 100 100 100 100 100 100 100 84
0 10 54 96 100 100 100 100 100 100 100 100 100 100 100 100 100 100 100 100 100 100 100 100 100 100 100 100 100 100 100 100 66 67 67 100 100 100 100 100 100 100 100
0 68 100 100 100 100 100 100 100 100 100 100 100 100 100 100 100 100 100 100 100 100 100 100 100 100 100 100 100 100 100 100 100 100 100 100 100 100 100 100 100 100 100
2 81 51 100 100 100 100 100 100 100 100 100 100 100 100 100 100 100 100 100 100 100 100 100 100 100 100 100 100 100 100 100 100 100 100 100 100 100 99 100 100 100 100
9 100 100 100 100 100 100 100 100 100 100 100 100 100 100 100 100 100 100 100 100 100 100 100 100 100 100 100 100 100 100 100 100 100 100 100 100 100 100 100 100 100 100
38 60 100 100 100 100 100 100 100 100 100 100 100 100 100 100 100 100 100 100 100 100 100 100 100 100 100 100 100 100 100 100 100 100 100 100 100 100 100 100 100 100 100
100 65 100 100 100 100 100 100 100 100 100 100 100 100 100 100 100 100 100 100 100 100 94 100 100 100 100 100 100 100 100 100 100 100 100 100 100 100 100 100 100 100 100
100 100 100 100 100 100 100 100 100 100 100 100 100 100 100 100 100 100 100 100 100 100 100 100 71 100 100 100 100 100 100 100 100 100 100 100 100 100 100 100 100 100 100
100 100 100 100 100 100 100 100 100 100 100 100 100 100 100 100 100 100 100 99 97 82 99 96 57 96 39 100 100 100 100 100 100 100 100 100 100 100 100 100 100 100 100
100 100 100 100 100 100 100 100 100 100 100 100 100 100 100 100 100 100 100 85 83 12 53 100 100 100 100 100 100 100 100 100 100 100 100 100 100 100 100 100 100 100 100
100 100 100 100 100 100 100 100 100 100 100 100 100 100 100 100 100 100 98 90 100 100 100 62 70 100 100 100 100 100 100 100 100 100 100 100 100 100 100 100 100 100 100
7 65 100 100 100 100 100 100 100 100 100 100 100 100 100 100 100 100 100 100 100 100 93 100 69 95 80 98 100 100 100 100 100 100 100 100 100 100 100 100 100 100 100
66 100 25 97 100 100 100 100 100 100 100 100 100 100 100 100 100 100 100 100 100 100 94 18 21 67 99 100 100 100 100 100 100 100 100 100 100 100 100 100 100 100 100
93 100 91 100 80 100 100 100 100 100 100 100 100 100 100 100 100 100 100 100 85 75 62 47 64 53 61 63 63 75 98 100 100 100 100 100 100 100 100 100 100 100 100
5 65 99 76 100 100 100 100 100 100 100 97 38 74 100 100 100 100 97 89 100 62 5 5 5 5 2 1 5 10 78 100 100 100 100 100 98 100 100 100 100 100 100
12 30 92 62 84 99 82 68 97 100 83 45 6 7 5 5 5 18 76 93 91 100 52 11 5 4 5 5 5 3 99 100 65 83 35 14 18 36 49 58 90 70 57
99 21 38 17 5 5 5 31 7 5 5 5 5 4 3 2 1 0 0 1 1 2 3 3 3 1 0 0 20 97 100 100 64 100 81 2 1 2 12 47 68 53 27